Wind_Speed
19 19 19 19 19 19 19 19 18 18 19 20 20 21 20 20 20 20 20 21 21 22 23 24 24 25 26 27 27 28 28 29 29 29 28 28 27 27 27 27 27 27 27 28 30 31 30 27 26 25 25 24 23 23 24 24 24 24 24 24 24 24 24 24 25 25 25 24 23
19 19 19 19 19 19 20 19 19 19 20 20 20 20 20 19 20 20 21 21 22 23 24 24 24 25 26 27 27 28 29 29 29 29 28 27 27 27 27 27 27 27 28 29 30 29 27 26 26 25 24 24 23 23 24 24 24 24 24 24 24 24 24 24 25 26 25 24 23
19 20 20 20 20 20 20 20 20 21 22 21 20 19 19 19 19 20 21 22 23 23 24 24 25 25 26 27 28 28 29 29 29 28 28 27 27 27 27 27 27 28 28 29 28 27 26 26 26 25 24 23 23 24 25 25 24 24 24 25 24 24 24 25 26 26 25 23 22
20 20 20 20 21 21 21 21 21 22 22 21 20 19 19 19 19 20 22 23 23 24 24 24 25 25 26 27 28 29 29 29 28 28 27 27 27 27 27 27 28 28 29 28 27 26 25 26 25 24 24 24 24 24 24 24 24 25 25 24 24 24 24 25 26 26 25 23 22
20 20 20 21 21 21 21 21 21 22 21 20 20 19 19 19 20 21 22 23 24 24 24 24 25 25 26 27 28 29 29 28 28 27 27 27 27 28 28 28 28 28 28 27 26 26 26 26 25 24 23 23 23 22 22 23 24 25 26 25 24 25 25 26 27 26 25 22 22
21 21 21 21 21 21 21 21 21 21 21 20 20 20 20 21 21 22 23 24 24 24 25 24 24 25 26 28 29 29 29 28 27 27 27 27 28 28 28 28 28 27 27 27 26 26 27 27 26 24 24 23 22 22 23 23 25 26 27 27 26 26 26 27 27 26 24 22 23
21 21 21 21 22 22 22 22 22 21 21 20 20 21 21 22 23 24 24 24 24 24 24 24 25 26 27 28 28 28 28 28 27 27 27 28 28 28 28 28 27 27 26 27 27 27 27 27 25 24 24 22 22 23 24 25 26 27 28 28 28 27 27 27 27 26 24 23 24
21 21 21 21 22 22 22 22 22 21 20 20 20 21 22 23 24 24 25 24 24 24 24 25 26 27 28 28 28 28 28 28 28 28 28 28 29 29 28 28 27 27 27 27 27 28 28 27 25 24 23 23 23 24 26 27 28 29 29 29 29 28 27 28 28 26 25 23 24
21 21 22 22 22 22 22 22 21 21 21 21 21 22 23 23 24 24 24 24 24 24 25 26 27 27 27 28 27 27 27 27 28 28 28 28 28 28 28 28 28 28 28 28 28 28 28 27 25 24 24 24 25 26 28 29 30 30 30 29 29 29 30 30 29 27 24 23 24
22 22 22 22 22 22 22 22 21 21 21 21 21 22 23 23 24 24 24 24 24 25 25 26 27 27 27 27 27 27 27 27 27 28 28 28 28 28 28 27 28 29 29 29 28 28 28 27 26 26 26 27 27 28 29 30 30 30 30 30 30 31 32 32 28 25 22 22 23
22 22 22 22 23 23 23 22 22 21 21 21 22 23 23 24 24 25 24 24 25 25 26 26 26 27 27 27 27 27 27 26 27 27 28 28 28 27 27 27 28 29 29 29 29 28 28 27 28 28 29 29 29 29 29 30 30 31 31 32 33 33 33 30 25 22 21 22 23
22 22 22 22 23 23 23 22 22 21 21 21 22 23 24 24 25 25 25 25 25 25 26 26 26 26 27 27 27 27 27 27 27 27 27 27 27 27 27 27 28 29 29 29 29 29 28 29 30 30 31 31 30 29 29 30 31 32 34 35 35 33 29 25 21 21 22 23 24
22 22 23 23 23 23 23 22 22 22 22 22 22 23 24 24 25 25 25 25 25 25 26 26 26 26 26 26 27 27 27 28 27 27 27 27 26 27 27 28 29 29 30 30 30 30 30 30 31 32 32 32 31 31 31 32 32 33 35 36 34 30 24 20 20 21 23 24 24
22 22 23 23 23 23 23 22 22 22 22 23 23 24 24 25 25 24 24 24 24 25 26 26 26 26 26 26 27 27 28 28 28 28 27 27 27 27 27 28 29 30 30 30 31 31 31 32 32 32 32 32 33 33 33 34 34 35 36 35 30 24 19 18 20 21 23 23 23
23 23 23 23 24 23 23 23 22 22 23 23 24 24 25 25 25 24 24 24 24 25 26 26 27 27 27 27 27 27 28 28 28 28 28 28 27 27 28 29 30 31 31 31 32 33 32 32 32 32 32 33 33 34 35 35 35 36 35 32 25 19 16 18 20 22 22 23 23
23 23 24 24 24 24 23 23 23 23 23 24 25 25 26 25 25 24 24 25 25 25 26 27 28 28 28 27 27 27 28 28 28 28 28 28 28 29 29 30 31 31 32 32 34 34 33 33 32 32 33 33 34 34 35 36 36 36 33 27 19 16 16 19 20 21 22 23 23
24 24 24 24 24 24 24 24 24 24 24 25 26 26 26 26 25 25 25 26 25 26 27 28 28 28 28 28 28 28 28 28 27 27 28 28 29 30 30 31 31 31 32 33 34 34 34 34 34 34 34 34 35 35 35 36 36 34 29 21 16 15 17 19 20 21 22 22 22
24 24 24 24 24 25 25 25 25 25 26 26 27 27 27 27 27 26 26 26 27 27 28 29 30 29 29 29 29 28 28 28 28 27 28 28 29 29 30 31 31 32 33 34 34 34 34 34 35 35 36 36 36 37 37 37 35 29 22 15 14 16 17 19 20 21 22 22 22
24 25 25 25 25 25 26 26 26 26 26 27 27 27 28 28 28 27 27 27 28 28 28 30 30 30 30 30 29 29 28 27 28 28 28 29 29 29 30 31 31 32 33 33 34 34 34 35 35 36 37 37 38 39 39 36 29 20 14 13 14 16 18 19 20 21 21 21 21
24 25 25 25 26 26 26 26 26 27 27 27 28 28 29 29 28 28 28 28 28 28 29 30 31 31 31 30 30 29 28 27 27 27 28 29 29 29 30 31 32 33 33 33 33 34 34 35 35 36 37 37 38 38 35 28 19 13 11 13 14 16 18 19 20 21 21 21 20
24 25 25 26 26 26 26 26 27 27 27 28 28 29 29 29 28 28 28 28 29 29 30 30 30 30 31 31 30 29 28 27 27 27 28 29 29 29 30 31 32 33 33 34 34 34 34 35 35 36 37 37 37 34 27 17 12 11 12 14 15 17 18 19 20 21 21 20 19
25 25 26 26 26 26 26 26 27 27 27 28 28 29 29 28 28 28 28 29 29 30 29 29 29 30 31 31 30 29 28 27 27 28 28 28 29 29 30 31 32 33 33 33 34 34 35 35 36 37 37 37 34 26 16 11 11 12 14 15 16 17 18 18 19 20 21 20 19
25 26 26 26 27 27 27 27 27 28 28 28 28 28 28 28 28 29 29 29 29 29 29 29 29 29 30 30 30 29 28 28 28 28 28 28 29 29 30 31 32 32 32 32 32 33 34 35 36 38 39 36 27 16 10 10 11 13 15 16 17 17 18 18 19 20 20 20 20
26 27 27 26 27 27 27 27 28 28 28 28 28 28 28 29 29 29 29 29 29 29 29 29 29 29 29 29 28 28 28 28 29 29 29 29 29 30 31 31 32 32 31 31 31 31 33 34 37 40 38 28 15 8 8 10 12 14 16 17 18 18 18 18 19 19 20 20 20
27 27 27 27 27 27 28 28 28 28 28 28 28 28 28 29 29 29 29 29 29 29 29 29 29 28 27 26 26 27 28 28 29 29 29 29 30 31 31 32 32 31 31 31 31 33 34 36 39 39 29 13 6 6 9 11 13 15 17 18 18 19 19 19 18 19 19 20 20
27 27 27 27 27 27 28 28 28 27 27 27 27 28 28 29 29 29 29 29 29 29 29 29 28 27 25 24 25 26 28 29 29 29 29 29 30 31 31 31 31 31 31 32 33 34 36 39 41 31 15 10 9 10 11 13 15 17 18 18 18 19 20 19 17 17 18 19 19
27 27 27 27 27 27 27 27 27 27 27 27 27 28 28 29 29 29 28 28 29 29 29 28 26 25 23 23 24 26 27 28 29 29 29 29 30 31 31 31 32 32 33 33 34 35 38 41 37 21 12 14 13 13 14 15 17 18 18 18 19 20 21 20 16 16 17 18 19
27 26 27 27 27 27 27 27 27 27 27 28 28 28 29 28 29 28 28 28 28 28 27 26 25 24 23 23 24 25 27 28 28 28 28 29 30 30 31 31 32 32 32 33 33 35 39 41 31 18 15 15 15 16 17 18 19 19 19 19 20 21 23 21 16 15 16 18 19
26 26 27 27 27 27 26 26 27 27 27 28 28 28 28 28 28 28 28 28 28 27 26 25 25 24 24 24 24 25 26 26 27 28 28 29 30 30 31 31 32 32 32 32 33 35 38 37 26 18 16 16 17 19 20 21 21 20 20 20 21 22 24 23 18 16 17 18 19
26 27 27 27 26 26 26 26 27 27 27 28 28 28 27 27 27 27 28 28 27 26 25 25 25 25 25 25 25 25 25 25 26 27 28 28 29 30 31 32 32 33 33 32 32 35 37 33 25 22 20 18 18 20 22 22 22 21 21 21 23 24 25 25 20 17 17 18 19
27 27 26 26 26 26 26 27 27 27 28 27 27 27 27 27 27 27 27 27 26 26 25 25 26 26 26 26 25 24 24 25 26 26 27 27 28 30 31 32 33 33 33 32 32 35 35 29 25 24 24 21 20 20 22 22 22 22 22 23 24 26 27 27 23 19 18 18 19
27 26 26 26 26 26 26 27 27 27 28 27 27 27 27 27 27 27 27 26 26 25 25 26 26 26 26 26 25 25 25 25 25 26 26 27 28 29 30 31 32 32 32 32 32 34 33 28 24 24 24 23 22 22 22 22 22 22 23 24 25 27 28 27 23 19 18 19 20
27 26 25 26 26 26 26 27 27 27 27 27 27 27 26 27 27 27 27 26 25 25 25 26 26 26 26 26 25 25 25 25 25 26 27 27 28 28 29 30 31 30 30 31 32 34 32 28 24 23 24 23 24 24 23 23 23 23 23 24 26 28 29 29 24 19 19 20 21
26 26 26 26 26 26 26 27 27 27 27 27 27 27 27 27 27 27 27 26 25 25 25 25 26 26 25 25 25 25 24 25 25 26 27 27 27 28 28 29 29 29 30 31 32 34 33 29 24 23 24 24 25 25 24 24 24 24 24 25 27 29 31 31 27 23 21 22 23
26 26 26 26 26 26 27 27 28 27 27 27 27 27 27 27 27 27 27 26 25 25 26 26 26 26 25 25 25 25 24 25 26 26 26 26 26 27 27 28 29 29 30 31 31 34 34 31 26 23 24 24 25 25 25 25 25 25 25 25 27 29 31 32 31 28 26 25 24
26 26 26 26 26 26 27 27 27 27 27 27 27 27 28 28 27 27 27 26 26 26 26 27 26 26 26 25 25 25 24 24 25 25 25 26 26 26 26 26 28 29 30 31 31 33 35 34 28 24 24 25 25 25 24 24 24 25 25 24 26 28 29 30 31 31 31 29 27
26 26 26 26 26 26 27 27 27 27 27 27 27 27 28 28 27 27 26 26 26 26 26 27 26 26 25 25 25 24 24 24 24 24 25 25 26 25 25 25 27 29 30 31 31 32 34 35 30 26 24 25 25 24 24 23 24 24 23 22 23 25 26 27 28 30 32 32 31
26 26 26 26 26 26 27 27 27 27 27 27 27 27 27 27 26 26 26 26 25 26 26 26 26 26 25 25 24 24 24 24 24 24 24 25 25 25 24 24 27 28 30 30 31 32 33 36 33 28 25 25 25 24 23 22 23 22 22 21 21 22 23 24 24 26 29 31 31
26 26 26 26 26 26 26 26 26 26 26 27 27 27 27 26 26 26 26 26 26 26 26 26 26 26 25 25 24 24 24 24 23 23 24 24 25 24 23 23 26 28 29 29 30 31 33 35 34 30 27 26 25 24 22 22 22 22 21 21 20 20 21 22 22 23 25 28 28
26 26 26 26 26 26 26 26 26 26 26 26 26 26 26 25 25 25 26 26 26 26 26 25 26 26 26 24 23 23 23 23 23 23 23 23 23 22 22 23 25 26 27 28 28 29 30 32 32 30 28 26 25 23 22 21 21 22 22 21 20 19 19 20 21 22 24 26 26
27 26 26 26 26 26 26 26 26 26 26 25 25 25 25 25 25 25 26 26 26 26 26 25 26 27 26 25 23 22 22 22 22 22 22 22 23 22 22 22 24 25 26 26 26 27 28 29 30 30 28 25 24 23 22 21 21 21 22 21 20 19 18 19 20 21 22 24 25
Wind_Direction
338 338 338 337 336 335 334 333 332 331 330 329 327 325 324 324 323 323 323 324 324 323 323 323 322 322 323 324 326 327 328 328 329 329 329 328 327 327 326 325 324 323 322 322 323 324 325 327 328 327 324 321 318 316 315 313 311 311 313 316 317 315 313 311 307 304 302 300 301
337 337 337 336 336 335 334 332 331 331 330 328 326 324 323 323 322 322 322 323 323 322 322 321 321 322 323 324 326 328 329 329 329 329 328 328 327 326 326 324 323 322 322 322 324 324 324 325 325 324 321 318 316 315 315 315 314 316 319 322 321 318 314 311 307 304 301 300 302
336 336 336 336 335 335 334 333 331 330 329 327 325 324 323 323 322 322 321 321 321 321 321 321 321 322 323 325 327 328 329 329 328 328 328 327 327 326 325 324 323 322 322 323 324 323 323 323 323 321 319 316 314 313 313 314 317 319 321 321 318 316 313 310 307 304 301 301 304
335 336 336 335 335 334 334 332 331 330 329 327 326 324 324 323 323 322 322 321 322 322 322 322 322 323 325 326 327 328 328 328 328 327 327 327 326 326 325 325 323 322 323 323 323 323 322 322 321 319 317 315 314 313 313 315 318 319 318 316 314 313 311 309 307 303 301 301 305
335 335 335 334 334 333 332 331 331 330 328 327 325 324 324 324 324 324 324 323 323 323 323 323 324 324 326 327 327 328 328 328 328 327 326 325 325 325 325 324 323 322 323 323 322 323 323 322 321 318 316 315 314 314 314 316 316 316 314 313 312 311 310 309 306 303 301 302 306
333 333 333 333 333 332 332 331 331 330 328 326 325 324 324 324 324 325 325 324 323 324 324 325 325 326 326 327 327 327 327 328 327 326 326 325 324 324 324 322 323 323 323 324 325 325 325 323 321 319 318 316 315 314 315 315 315 314 313 312 311 310 309 308 306 303 301 304 308
332 332 332 332 332 332 331 331 330 329 328 326 324 324 324 324 324 324 325 325 325 326 327 327 327 326 326 326 327 327 327 327 327 326 326 325 325 324 323 323 324 325 326 327 328 327 326 324 321 320 319 318 316 315 315 315 314 313 312 311 310 309 308 307 305 303 302 305 309
332 332 332 332 332 331 331 331 330 329 327 326 324 324 324 324 324 325 325 326 326 327 327 327 326 326 326 326 326 327 327 327 327 327 327 325 324 323 324 325 327 328 329 330 329 327 326 324 322 320 318 318 317 315 314 314 313 312 311 310 309 308 308 307 305 303 303 307 310
332 332 332 332 332 332 331 331 330 328 326 325 324 324 325 325 325 325 325 326 326 326 327 327 326 326 326 326 326 326 327 327 327 327 327 326 325 325 327 329 330 331 331 330 328 326 325 323 322 320 319 318 316 314 313 313 313 313 312 310 309 309 308 308 305 304 305 310 312
332 332 332 332 332 332 331 331 329 328 326 325 325 325 325 325 325 325 325 324 325 325 326 326 327 327 327 326 326 327 327 327 327 327 326 325 326 327 328 330 331 331 329 328 326 325 324 322 321 320 319 317 315 314 313 314 313 313 312 311 310 309 308 308 305 306 310 314 314
331 331 332 332 332 331 331 330 329 328 326 325 325 325 325 325 324 324 324 324 324 325 326 327 327 327 327 327 327 327 327 326 326 325 325 324 325 326 328 329 329 328 327 325 325 324 323 321 320 319 318 317 315 314 313 314 314 314 313 312 311 309 308 307 308 312 317 319 318
330 330 331 331 331 331 331 330 329 328 326 326 325 325 325 325 324 324 323 324 324 325 326 327 327 327 327 327 327 327 327 326 326 325 325 324 324 325 327 327 327 326 325 324 324 323 321 319 318 317 317 317 316 314 314 314 315 315 314 314 312 309 307 307 313 319 322 322 321
329 330 330 331 331 331 331 330 329 327 326 325 325 324 324 324 324 324 323 323 324 325 326 327 327 326 326 326 326 326 326 326 325 325 325 323 323 323 324 325 324 324 324 324 323 322 320 318 317 316 316 316 315 314 314 314 315 315 314 313 311 309 308 312 320 325 326 325 324
329 329 330 331 331 331 330 329 328 326 325 324 324 324 323 323 323 324 323 323 324 325 325 326 326 326 325 325 326 326 326 326 325 325 324 323 322 322 323 323 323 324 324 323 323 322 320 318 317 316 315 314 314 314 314 314 314 314 313 311 308 308 312 320 325 327 327 326 325
328 329 329 330 331 330 329 328 327 325 324 323 322 322 322 322 323 323 323 323 324 325 325 325 324 324 324 325 325 325 326 325 325 325 324 323 322 322 322 323 323 324 323 323 322 320 319 317 316 315 314 313 313 313 313 313 313 312 311 309 309 313 320 325 327 328 327 327 326
327 328 329 329 330 329 328 327 326 324 323 322 322 321 321 320 321 322 324 325 325 325 325 324 323 323 323 324 325 326 326 325 325 324 323 323 323 323 323 323 323 324 323 322 321 320 318 317 315 314 313 312 311 310 310 311 310 309 309 310 314 321 325 326 328 328 328 327 326
327 327 328 328 328 328 327 326 325 324 323 322 322 322 320 319 319 321 324 326 326 325 325 324 324 323 322 323 324 325 326 325 325 323 322 321 322 322 322 323 323 323 323 322 320 318 317 316 315 314 313 312 311 310 310 310 308 308 309 313 321 326 327 327 329 329 329 328 326
326 327 327 327 327 327 326 326 325 323 322 322 321 321 320 318 319 321 323 325 326 326 325 325 324 323 322 321 323 324 325 325 324 323 322 321 321 321 322 323 323 323 323 321 319 317 316 315 315 314 313 313 313 312 311 310 310 310 314 321 326 328 328 329 331 331 330 328 328
326 326 326 326 326 326 326 325 324 323 323 322 321 320 319 318 318 319 322 325 326 326 325 325 324 323 322 321 321 322 324 324 324 324 324 323 323 323 323 323 324 323 322 320 318 317 316 315 314 314 314 314 314 313 313 314 315 320 326 330 330 330 331 332 332 332 331 330 331
327 326 326 325 325 325 324 324 324 323 323 322 321 320 319 318 318 319 322 324 326 326 325 324 324 323 322 321 321 322 323 324 325 325 326 326 325 325 325 325 324 323 322 320 318 317 315 314 313 313 313 313 313 313 315 321 330 339 341 337 335 334 334 335 335 334 333 333 335
327 326 325 325 324 324 323 323 323 323 323 322 321 320 319 319 319 321 323 325 325 325 324 323 323 322 321 321 320 321 322 324 326 327 327 328 327 327 326 326 325 324 322 320 318 317 316 314 313 312 312 312 312 314 321 334 348 350 344 341 340 339 339 338 338 337 336 337 340
326 326 325 325 324 323 323 323 323 323 322 322 321 321 321 321 322 323 324 324 324 324 323 322 322 322 322 321 320 321 323 325 326 328 329 329 328 328 327 327 326 324 321 319 319 318 317 315 314 313 312 311 313 319 332 351 354 350 347 346 345 344 343 343 343 342 341 342 347
326 326 325 325 325 325 325 324 325 324 323 322 322 323 324 324 325 325 325 325 324 323 322 322 322 322 322 322 322 323 324 326 327 328 329 330 329 329 328 328 326 324 321 319 319 318 317 316 314 313 312 312 316 327 349 356 355 353 353 352 351 349 347 346 346 346 346 349 355
325 325 325 325 326 326 325 325 325 324 323 323 324 325 326 326 326 326 325 325 324 324 323 323 323 323 323 323 324 325 326 327 328 328 329 330 330 330 329 328 326 324 321 319 319 318 317 315 314 313 313 315 325 348 4 1 1 1 360 358 355 351 348 347 348 350 352 357 2
325 325 325 327 326 326 326 326 325 324 324 325 326 326 327 327 326 326 325 325 325 325 325 325 324 324 324 324 325 326 327 328 328 329 330 331 331 331 330 328 327 324 322 320 320 319 318 317 316 316 320 336 13 29 16 11 9 8 7 3 358 351 346 345 349 353 358 4 7
325 326 327 327 327 327 327 327 327 326 327 328 328 328 327 327 327 326 326 326 327 327 327 326 325 325 325 325 326 328 328 328 329 329 330 331 331 331 330 328 326 324 323 322 321 321 321 321 323 328 350 47 52 36 23 17 14 13 10 5 358 350 344 342 348 357 3 8 10
326 326 327 328 329 329 329 329 329 329 330 330 330 329 329 328 328 328 328 329 329 329 328 327 327 327 327 327 328 329 329 329 329 330 330 330 330 330 329 328 326 325 323 322 322 322 323 326 334 353 47 60 46 32 24 18 16 14 10 4 357 350 345 343 351 1 7 10 12
327 328 329 330 331 331 331 332 332 332 332 332 331 331 331 330 330 331 332 331 331 330 329 329 330 330 329 329 329 329 329 329 329 329 330 330 330 329 329 327 326 325 323 323 323 324 327 331 347 20 60 51 39 30 24 19 16 12 8 2 356 351 348 348 359 10 14 13 15
331 332 333 333 333 333 334 334 334 334 333 333 333 333 333 333 334 334 334 334 333 332 331 331 331 331 330 329 329 329 329 329 329 329 329 329 329 329 328 327 326 325 324 324 325 327 332 340 358 29 50 44 35 28 24 19 16 12 7 2 357 354 352 353 3 17 22 18 18
336 336 335 335 335 335 336 336 335 335 334 334 334 334 335 335 336 337 336 335 334 333 332 331 332 331 330 329 329 329 329 329 329 329 329 329 329 329 328 327 327 326 325 325 326 331 339 351 9 28 38 39 32 26 22 20 16 12 7 3 0 359 358 357 5 20 28 25 23
339 338 337 336 337 337 337 336 336 336 335 335 335 336 337 337 337 337 336 335 333 332 332 332 332 331 330 330 330 330 330 330 330 329 329 328 329 329 328 327 327 327 326 327 328 336 346 1 17 28 31 32 28 24 21 19 16 12 8 5 4 4 4 2 9 24 35 31 26
340 339 338 338 338 338 337 337 337 337 337 336 336 337 337 337 337 336 335 334 333 332 332 332 332 332 331 332 331 331 331 331 331 330 329 329 329 329 329 328 328 328 327 329 330 338 351 10 24 29 28 28 26 24 22 19 16 12 9 9 10 11 9 7 14 31 44 37 31
342 341 340 340 339 338 338 338 338 338 337 337 337 337 337 336 336 335 334 334 333 332 332 333 333 333 332 332 331 332 332 332 332 331 331 331 331 330 329 329 329 329 329 330 332 340 354 16 29 31 28 26 25 23 22 19 16 13 13 14 18 18 16 13 18 34 49 45 39
342 342 341 340 340 339 338 338 338 338 338 338 338 338 337 335 334 333 333 333 332 332 333 333 333 333 332 332 332 332 333 333 333 333 333 333 333 332 330 330 331 331 331 332 335 344 359 18 31 33 28 25 24 23 22 19 17 16 17 21 24 24 21 18 19 29 44 49 45
342 342 341 340 339 339 338 338 338 338 338 337 337 337 336 335 334 333 332 332 332 333 333 334 334 334 334 333 333 334 334 334 334 334 334 334 334 333 332 332 334 335 334 335 337 348 3 19 32 35 30 27 25 24 22 20 19 19 22 27 28 27 25 21 18 21 29 40 44
342 341 340 339 338 338 338 337 337 337 337 337 337 336 335 334 334 334 333 332 332 333 334 335 335 335 335 335 335 336 336 336 335 335 335 335 335 335 335 337 339 339 338 337 339 349 3 19 31 36 34 30 28 25 23 21 20 21 25 29 29 27 25 23 19 18 19 25 33
341 341 339 338 337 336 336 336 336 337 337 337 336 335 334 333 333 334 334 334 333 333 334 334 334 335 335 336 336 336 337 337 337 336 337 337 337 338 340 340 342 342 341 340 341 349 2 16 28 37 39 35 31 27 24 22 21 22 24 28 28 26 24 23 21 20 19 19 22
340 340 338 337 336 335 335 335 335 336 335 335 334 334 334 333 333 334 335 335 334 333 332 332 332 333 334 336 337 337 337 338 339 339 340 340 341 342 343 343 343 344 343 342 343 349 1 14 26 36 42 40 34 29 25 23 22 22 23 24 25 24 23 23 21 20 20 20 18
340 338 337 337 336 335 334 334 334 334 333 332 332 332 333 333 334 335 335 334 333 332 331 330 330 331 333 335 336 336 337 338 340 341 342 342 343 344 344 343 344 345 345 344 345 351 1 13 22 32 40 42 36 30 25 23 21 21 21 22 21 21 21 22 20 19 19 19 19
339 338 337 336 335 334 333 332 332 331 331 330 330 331 333 334 334 335 335 334 333 332 331 329 328 329 331 333 334 335 335 337 339 341 343 343 344 345 345 344 345 346 346 346 347 353 1 10 18 27 35 39 36 31 27 24 22 21 20 20 18 18 19 20 20 19 17 17 18
339 338 338 337 335 334 333 331 330 329 329 329 330 331 334 335 335 335 335 335 334 333 331 329 328 328 329 331 332 333 334 335 337 340 341 342 344 345 345 346 346 347 347 347 348 353 360 8 15 21 27 32 33 31 28 26 25 22 20 18 16 15 16 17 18 18 16 15 15
Height
881 880 878 877 876 875 873 872 871 870 869 867 866 864 862 861 859 858 857 855 854 852 850 849 847 845 844 842 841 840 838 837 835 834 832 831 829 827 826 824 822 821 819 817 815 813 812 810 809 807 806 804 802 800 799 797 795 793 792 790 789 788 787 785 784 782 781 779 778
881 880 878 877 876 875 873 872 871 870 868 867 866 864 862 861 859 858 857 855 854 852 850 848 847 845 843 842 841 839 837 836 834 833 831 830 828 827 825 823 822 820 818 817 815 813 812 810 809 807 805 803 801 799 798 796 794 793 791 790 789 787 786 784 782 781 779 778 777
880 879 878 877 876 874 873 872 870 869 868 867 865 864 862 861 860 858 857 855 853 852 850 848 847 845 843 842 840 839 837 836 834 832 831 829 827 826 824 822 821 819 817 816 814 813 811 810 808 806 804 802 800 798 797 795 794 792 791 790 788 787 785 783 781 779 778 776 775
880 879 878 877 876 874 873 872 870 869 867 866 865 863 862 861 859 858 856 855 853 852 850 848 846 844 843 841 840 838 837 835 834 832 830 828 827 825 823 822 820 818 816 815 813 812 810 809 807 805 803 801 800 798 796 795 793 792 791 789 787 786 784 782 780 778 777 775 774
880 879 878 877 875 874 873 872 870 869 867 866 865 863 862 861 859 857 856 854 853 851 850 848 846 844 842 841 839 838 836 835 833 831 829 827 826 824 822 821 819 817 815 814 812 811 809 808 806 804 802 800 799 797 796 794 793 791 790 788 786 784 783 781 779 777 775 774 772
880 879 877 877 875 874 872 871 870 868 867 866 864 863 862 860 859 857 856 854 852 851 849 847 846 844 842 841 839 837 835 834 832 831 829 827 825 823 821 819 818 816 815 813 812 810 808 807 805 803 801 799 798 796 795 794 792 790 788 787 785 783 782 780 778 776 774 773 772
880 878 877 876 875 873 872 871 869 868 867 865 864 862 861 860 858 857 856 854 852 850 849 847 845 844 842 840 838 837 835 833 832 830 828 827 824 822 821 819 817 816 814 812 811 809 807 806 804 802 800 799 797 795 794 792 791 789 787 785 783 782 780 778 777 775 773 772 770
880 878 877 876 875 873 872 870 869 868 866 865 864 862 861 859 858 856 855 853 852 850 848 847 845 843 842 840 838 836 834 832 831 829 828 826 824 822 820 818 817 815 813 812 810 809 807 805 803 801 799 798 796 794 792 791 789 788 786 784 782 780 779 777 775 774 772 771 769
879 878 877 875 874 873 872 870 869 867 866 865 863 862 860 859 857 856 854 853 851 850 848 846 844 843 841 839 837 836 834 832 830 829 827 825 823 821 819 818 816 814 813 811 810 808 806 804 802 800 799 797 795 793 791 789 788 786 784 782 780 778 777 775 774 772 771 770 768
879 877 876 875 873 872 871 870 868 867 866 864 863 861 860 858 857 855 854 852 851 849 847 846 844 842 840 839 837 835 833 832 830 828 827 825 823 821 819 817 816 814 812 811 809 807 805 803 801 799 797 796 794 792 790 788 786 785 783 781 779 777 775 773 772 771 770 769 767
878 877 876 874 873 872 870 869 867 866 865 863 862 861 859 858 856 855 853 852 850 848 847 845 843 842 840 838 837 835 833 832 830 828 826 824 822 821 819 817 816 814 812 810 808 806 804 802 800 798 796 794 792 790 788 787 785 783 781 779 777 775 773 772 771 770 769 768 766
878 877 875 874 873 871 870 868 867 866 864 863 862 860 859 857 856 854 852 851 850 848 846 845 843 842 840 838 836 834 832 831 829 827 826 824 822 820 819 817 815 813 811 809 807 805 803 801 798 796 794 792 791 789 787 785 783 781 779 777 775 774 772 771 771 770 768 767 765
877 876 875 874 872 871 869 868 867 865 864 862 861 859 858 856 855 853 852 850 849 847 846 844 842 841 839 837 836 834 832 830 829 827 825 823 821 820 818 816 814 812 810 808 807 805 802 800 797 795 793 791 789 787 785 784 782 780 778 776 774 772 772 771 770 769 767 766 764
877 876 875 873 872 870 869 867 866 864 863 862 860 859 857 856 854 852 851 850 848 847 845 843 842 840 839 837 835 833 832 830 828 826 824 822 821 819 817 815 813 811 809 807 806 804 802 799 797 794 792 790 787 785 784 782 781 779 777 775 773 772 771 770 769 768 767 765 763
877 875 874 873 871 870 868 867 866 864 862 861 859 858 857 855 853 852 850 849 847 846 844 843 841 839 838 836 835 833 831 829 827 826 824 822 820 818 816 814 812 810 808 806 804 802 800 798 796 793 791 789 787 784 782 780 779 777 775 774 772 772 771 770 768 767 766 764 762
876 875 873 872 871 869 868 867 865 863 862 860 859 857 856 854 852 851 850 848 847 845 844 842 840 838 837 835 834 832 830 828 827 825 823 821 819 817 815 813 811 809 807 805 803 800 798 796 794 792 790 787 785 783 781 779 777 775 774 773 772 772 770 769 768 766 765 763 762
876 874 873 872 870 869 867 866 865 863 862 860 858 857 855 853 852 850 849 847 846 844 843 841 840 838 836 834 833 831 830 828 826 824 822 820 818 816 814 812 811 809 807 804 802 799 797 794 792 790 788 786 783 782 779 777 776 774 773 772 772 771 770 768 767 766 764 763 761
875 874 872 871 870 868 867 865 864 862 861 859 857 856 854 853 851 850 848 847 846 844 842 840 839 837 835 833 832 830 829 827 825 823 822 820 818 816 814 812 810 808 806 803 801 798 795 793 791 788 786 784 782 779 777 775 774 772 772 772 771 770 769 768 767 765 764 762 761
875 873 872 871 869 867 866 865 863 862 860 859 857 855 854 852 851 849 847 846 845 843 842 840 838 836 834 833 831 829 828 826 824 822 821 819 817 815 813 811 809 807 805 802 799 797 794 792 789 787 784 782 779 777 775 773 772 772 772 772 771 769 768 767 766 765 763 762 760
874 873 872 870 868 867 866 864 862 861 859 858 856 854 853 851 850 848 847 845 844 842 841 839 837 835 833 832 830 828 827 826 824 822 820 818 817 815 812 810 808 806 803 801 798 796 793 790 788 785 783 781 778 776 774 773 772 772 772 771 770 769 767 767 765 764 762 761 760
874 872 871 869 868 867 865 863 862 860 859 857 855 854 852 850 849 847 846 844 843 842 840 838 836 834 832 831 829 827 826 825 823 822 820 818 816 814 812 810 807 805 802 799 797 794 792 789 787 784 782 779 777 775 774 773 773 772 771 770 769 768 767 766 765 763 762 760 759
873 872 871 869 867 866 864 863 861 860 858 856 854 853 851 850 848 847 845 844 842 841 839 837 836 834 832 830 828 827 825 824 822 821 819 817 815 813 811 809 807 804 801 798 795 793 790 787 784 782 780 778 776 775 774 773 772 772 770 769 768 767 767 765 764 763 761 760 759
873 871 870 868 867 865 863 862 860 859 857 855 854 852 851 849 847 846 845 843 842 840 838 837 835 833 831 829 828 826 824 823 821 820 818 817 815 812 810 808 806 803 800 797 795 792 789 786 783 780 777 776 775 775 774 773 772 771 770 769 768 767 766 765 764 762 761 760 759
872 871 869 867 866 864 863 861 860 858 856 854 853 852 850 848 847 845 844 842 841 839 837 836 834 832 831 829 827 826 824 822 821 819 817 816 814 812 809 807 804 802 799 796 794 792 790 786 782 778 776 774 774 774 773 773 772 771 770 768 768 767 766 765 764 762 761 760 759
872 870 868 867 865 863 862 861 859 857 856 854 852 851 849 848 846 844 843 841 840 838 837 835 833 832 830 828 827 825 824 822 820 818 817 815 813 811 808 806 803 801 798 796 794 792 789 786 782 777 774 773 773 773 773 772 771 771 770 769 768 767 766 765 764 762 762 760 759
871 869 867 866 865 863 862 860 858 857 855 854 852 850 849 847 845 844 842 840 839 837 836 834 832 831 829 828 826 825 823 822 820 818 816 814 812 810 808 805 802 800 797 795 793 790 787 784 780 776 773 773 773 772 772 772 771 771 770 769 769 767 766 765 763 763 762 761 759
870 869 867 866 864 863 861 860 858 857 855 853 852 850 848 847 845 843 842 840 838 837 835 833 832 830 829 827 826 824 823 821 819 818 816 814 812 809 807 804 802 799 797 795 793 790 786 782 779 775 773 773 773 772 772 772 771 771 770 770 769 767 766 764 763 763 762 761 760
870 868 867 865 864 862 861 859 857 856 854 853 851 849 848 846 845 843 842 840 838 836 834 833 831 830 828 827 825 824 822 821 819 817 815 813 811 809 807 804 801 799 797 795 792 790 786 782 778 775 773 774 773 772 772 772 771 771 771 770 769 767 766 764 763 763 762 761 760
870 868 867 865 863 862 860 859 857 856 854 852 851 849 847 846 844 843 841 840 838 836 834 832 831 830 828 827 825 823 822 820 819 817 815 813 811 808 806 803 801 799 797 795 792 790 787 783 779 776 775 775 774 773 772 772 772 772 771 770 769 767 766 764 763 763 763 762 761
870 868 867 865 863 862 860 859 857 855 854 852 851 849 847 846 844 843 841 839 838 836 834 833 831 830 828 827 825 823 822 820 818 817 815 812 810 808 806 803 800 798 796 794 792 790 787 783 779 777 776 775 775 774 773 773 772 772 771 770 769 768 766 764 764 763 763 762 761
870 868 867 865 863 862 860 858 857 855 853 852 850 849 847 846 844 843 841 839 838 836 835 833 831 829 828 826 824 823 821 820 818 816 814 812 810 808 805 802 800 797 795 793 791 789 787 783 780 778 777 776 776 775 774 774 773 772 772 771 770 768 767 765 764 764 764 763 762
870 868 866 865 863 861 860 858 857 855 853 852 850 849 847 846 844 843 841 839 837 836 834 832 831 829 827 826 824 822 821 819 818 816 814 812 810 808 805 802 800 797 795 793 791 789 787 784 781 779 778 777 777 776 775 774 774 773 772 771 770 769 768 766 765 765 765 764 763
869 868 866 865 863 861 860 858 856 855 853 852 850 849 847 846 844 842 841 839 837 835 834 832 830 829 827 825 824 822 821 819 817 816 814 812 810 808 805 802 800 797 795 793 792 790 787 784 782 780 779 778 777 777 776 775 774 774 773 772 772 770 768 767 766 766 766 765 764
869 867 866 864 863 861 859 858 856 855 853 852 850 849 847 846 844 842 840 838 837 835 834 832 830 829 827 825 824 822 821 819 817 815 813 812 810 808 805 803 800 798 796 793 792 790 788 784 782 781 780 779 778 777 777 776 775 775 774 773 772 771 770 768 767 767 767 766 765
869 867 866 864 863 861 859 858 856 855 853 852 850 849 847 845 844 842 840 838 837 835 833 832 830 828 827 825 823 822 820 819 817 815 813 812 810 808 805 803 801 798 796 793 792 790 788 785 782 781 781 780 779 778 778 777 776 776 775 774 774 772 771 770 768 768 767 767 766
869 867 866 864 862 861 859 858 856 854 853 852 850 848 847 845 843 842 840 838 836 834 833 831 829 828 826 825 823 822 820 819 817 815 813 812 810 808 806 803 801 799 796 793 792 790 788 785 783 782 781 781 780 780 779 779 778 777 777 776 775 774 773 772 770 769 768 767 766
869 868 866 864 862 861 859 858 856 854 853 851 850 848 846 845 843 841 840 838 836 834 832 831 829 827 826 825 823 822 820 819 817 816 814 812 810 808 806 804 802 799 797 794 792 790 788 786 784 782 782 782 781 781 781 780 780 779 778 777 777 776 775 774 772 771 769 768 767
869 868 866 864 862 861 859 857 856 854 853 851 850 848 846 845 843 841 840 838 836 834 832 830 829 827 826 825 823 822 821 819 817 816 814 812 810 809 807 805 803 801 798 796 793 791 789 787 785 784 783 783 783 783 782 782 781 780 780 779 778 777 777 776 775 773 772 770 769
869 867 866 864 862 861 859 857 856 854 852 851 849 847 846 844 843 841 840 838 836 834 832 830 828 827 826 825 823 822 820 819 818 816 815 813 811 809 808 806 804 802 799 797 795 792 791 788 787 786 785 785 785 785 784 783 783 782 781 780 779 779 778 777 776 775 774 772 771
869 867 866 864 862 861 859 857 855 854 852 850 849 847 846 844 843 841 840 838 836 834 832 830 828 827 826 824 823 822 821 819 818 816 815 813 812 810 809 807 805 803 801 799 797 794 792 791 789 788 787 787 787 786 786 785 784 783 782 782 781 780 779 778 778 777 775 774 772
869 867 866 864 862 860 858 857 855 853 851 850 848 847 846 844 843 841 839 837 836 834 832 830 828 826 825 824 823 822 821 819 818 816 815 814 812 811 809 808 806 804 802 800 798 796 794 793 791 790 789 789 788 788 787 786 785 784 784 783 782 782 781 780 779 778 777 776 774